Time,TemperatureF,DewpointF,PressureIn,WindDirection,WindDirectionDegrees,WindSpeedMPH,WindSpeedGustMPH,Humidity,HourlyPrecipIn,Conditions,Clouds,dailyrainin,SoftwareType,DateUTC
2013-01-01 00:01:00,23.5,22.6,29.02,North,0,0.0,0.0,96,0.00,CLR,,0.00,WeatherDisplay:10.37,2013-01-01 06:01:00,
2013-01-01 00:06:00,23.5,22.6,29.02,North,0,0.0,0.0,96,0.00,CLR,,0.00,WeatherDisplay:10.37,2013-01-01 06:06:00,
2013-01-01 00:11:00,23.5,22.6,29.01,NE,45,1.1,0.0,96,0.00,CLR,,0.00,WeatherDisplay:10.37,2013-01-01 06:11:00,
2013-01-01 00:16:00,23.5,22.6,29.02,NNE,13,0.0,0.0,96,0.00,CLR,,0.00,WeatherDisplay:10.37,2013-01-01 06:16:00,
2013-01-01 00:21:00,23.7,22.7,29.01,WNW,292,0.0,0.0,96,0.00,CLR,,0.00,WeatherDisplay:10.37,2013-01-01 06:21:00,
2013-01-01 00:26:00,23.7,22.7,29.01,South,180,1.1,0.0,96,0.00,CLR,,0.00,WeatherDisplay:10.37,2013-01-01 06:26:00,
2013-01-01 00:31:00,23.7,22.7,29.02,SE,135,0.0,0.0,96,0.00,CLR,,0.00,WeatherDisplay:10.37,2013-01-01 06:31:00,
2013-01-01 00:36:00,23.5,22.6,29.01,NE,45,0.0,0.0,96,0.00,CLR,,0.00,WeatherDisplay:10.37,2013-01-01 06:36:00,
2013-01-01 00:41:00,23.4,22.4,29.02,NE,45,0.0,0.0,96,0.00,CLR,,0.00,WeatherDisplay:10.37,2013-01-01 06:41:00,
2013-01-01 00:46:00,23.2,22.0,29.02,NW,315,1.1,0.0,95,0.00,CLR,,0.00,WeatherDisplay:10.37,2013-01-01 06:46:00,
2013-01-01 00:51:00,23.0,21.8,29.01,North,0,0.0,0.0,95,0.00,CLR,,0.00,WeatherDisplay:10.37,2013-01-01 06:51:00,
2013-01-01 00:56:00,22.8,21.6,29.02,North,0,0.0,0.0,95,0.00,CLR,,0.00,WeatherDisplay:10.37,2013-01-01 06:56:00,
2013-01-01 01:01:00,22.8,21.6,29.02,NE,45,0.0,0.0,95,0.00,CLR,,0.00,WeatherDisplay:10.37,2013-01-01 07:01:00,
2013-01-01 01:06:00,22.8,21.6,29.02,NE,45,0.0,0.0,95,0.00,CLR,,0.00,WeatherDisplay:10.37,2013-01-01 07:06:00,
2013-01-01 01:11:00,22.8,21.6,29.02,SE,135,0.0,0.0,95,0.00,CLR,,0.00,WeatherDisplay:10.37,2013-01-01 07:11:00,
2013-01-01 01:16:00,22.8,21.6,29.03,NE,45,1.1,0.0,95,0.00,CLR,,0.00,WeatherDisplay:10.37,2013-01-01 07:16:00,
2013-01-01 01:21:00,22.8,21.6,29.02,West,270,1.1,0.0,95,0.00,CLR,,0.00,WeatherDisplay:10.37,2013-01-01 07:21:00,
2013-01-01 01:26:00,22.8,21.6,29.03,NE,45,0.0,0.0,95,0.00,CLR,,0.00,WeatherDisplay:10.37,2013-01-01 07:26:00,
2013-01-01 01:31:00,22.6,21.2,29.03,NW,315,0.0,0.0,94,0.00,CLR,,0.00,WeatherDisplay:10.37,2013-01-01 07:31:00,
2013-01-01 01:36:00,22.6,21.2,29.03,NE,45,0.0,0.0,94,0.00,CLR,,0.00,WeatherDisplay:10.37,2013-01-01 07:36:00,
2013-01-01 01:42:00,22.6,21.2,29.03,South,180,1.1,0.0,94,0.00,CLR,,0.00,WeatherDisplay:10.37,2013-01-01 07:42:00,
2013-01-01 01:47:00,22.6,21.2,29.03,WSW,248,0.0,0.0,94,0.00,CLR,,0.00,WeatherDisplay:10.37,2013-01-01 07:47:00,
2013-01-01 01:52:00,22.6,21.2,29.03,SE,135,0.0,0.0,94,0.00,CLR,,0.00,WeatherDisplay:10.37,2013-01-01 07:52:00,
2013-01-01 01:57:00,22.6,21.2,29.03,WSW,248,0.0,0.0,94,0.00,CLR,,0.00,WeatherDisplay:10.37,2013-01-01 07:57:00,
2013-01-01 02:02:00,22.6,21.2,29.03,South,180,0.0,0.0,94,0.00,CLR,,0.00,WeatherDisplay:10.37,2013-01-01 08:02:00,
2013-01-01 02:07:00,22.5,21.0,29.04,NE,45,0.0,0.0,94,0.00,CLR,,0.00,WeatherDisplay:10.37,2013-01-01 08:07:00,
2013-01-01 02:12:00,22.5,21.0,29.03,NW,315,0.0,0.0,94,0.00,CLR,,0.00,WeatherDisplay:10.37,2013-01-01 08:12:00,
2013-01-01 02:17:00,22.5,21.0,29.04,NE,45,4.6,4.6,94,0.00,CLR,,0.00,WeatherDisplay:10.37,2013-01-01 08:17:00,
2013-01-01 02:22:00,22.1,20.4,29.04,SE,135,1.1,0.0,93,0.00,CLR,,0.00,WeatherDisplay:10.37,2013-01-01 08:22:00,
2013-01-01 02:28:00,22.1,20.4,29.05,NE,45,1.1,0.0,93,0.00,CLR,,0.00,WeatherDisplay:10.37,2013-01-01 08:28:00,
2013-01-01 02:33:00,22.1,20.4,29.05,North,0,1.1,0.0,93,0.00,CLR,,0.00,WeatherDisplay:10.37,2013-01-01 08:33:00,
2013-01-01 02:38:00,21.9,20.0,29.05,South,180,0.0,0.0,92,0.00,CLR,,0.00,WeatherDisplay:10.37,2013-01-01 08:38:00,
2013-01-01 02:43:00,21.9,20.0,29.06,West,270,1.1,0.0,92,0.00,CLR,,0.00,WeatherDisplay:10.37,2013-01-01 08:43:00,
2013-01-01 02:48:00,21.9,20.0,29.06,NE,45,0.0,0.0,92,0.00,CLR,,0.00,WeatherDisplay:10.37,2013-01-01 08:48:00,
2013-01-01 02:53:00,21.9,20.0,29.06,SE,135,1.1,0.0,92,0.00,CLR,,0.00,WeatherDisplay:10.37,2013-01-01 08:53:00,
2013-01-01 02:58:00,21.7,19.8,29.06,NE,45,0.0,0.0,92,0.00,CLR,,0.00,WeatherDisplay:10.37,2013-01-01 08:58:00,
2013-01-01 03:03:00,21.7,19.5,29.06,West,270,0.0,0.0,91,0.00,CLR,,0.00,WeatherDisplay:10.37,2013-01-01 09:03:00,
2013-01-01 03:09:00,21.7,19.5,29.05,WSW,248,1.1,0.0,91,0.00,CLR,,0.00,WeatherDisplay:10.37,2013-01-01 09:09:00,
2013-01-01 03:14:00,21.6,19.1,29.05,NW,315,0.0,0.0,90,0.00,CLR,,0.00,WeatherDisplay:10.37,2013-01-01 09:14:00,
2013-01-01 03:19:00,21.6,19.1,29.05,NE,45,1.1,0.0,90,0.00,CLR,,0.00,WeatherDisplay:10.37,2013-01-01 09:19:00,
2013-01-01 03:24:00,21.6,19.1,29.06,North,0,1.1,0.0,90,0.00,CLR,,0.00,WeatherDisplay:10.37,2013-01-01 09:24:00,
2013-01-01 03:29:00,21.6,19.1,29.05,West,270,5.8,0.0,90,0.00,CLR,,0.00,WeatherDisplay:10.37,2013-01-01 09:29:00,
2013-01-01 03:34:00,21.4,18.6,29.06,SE,135,0.0,0.0,89,0.00,CLR,,0.00,WeatherDisplay:10.37,2013-01-01 09:34:00,
2013-01-01 03:39:00,21.4,18.6,29.05,North,0,0.0,0.0,89,0.00,CLR,,0.00,WeatherDisplay:10.37,2013-01-01 09:39:00,
2013-01-01 03:44:00,21.4,18.9,29.05,SE,135,0.0,0.0,90,0.00,CLR,,0.00,WeatherDisplay:10.37,2013-01-01 09:44:00,
2013-01-01 03:49:00,21.4,18.9,29.04,West,270,0.0,0.0,90,0.00,CLR,,0.00,WeatherDisplay:10.37,2013-01-01 09:49:00,
2013-01-01 03:54:00,21.4,18.9,29.04,NE,45,1.1,0.0,90,0.00,CLR,,0.00,WeatherDisplay:10.37,2013-01-01 09:54:00,
2013-01-01 03:59:00,21.2,18.5,29.04,West,270,1.1,0.0,89,0.00,CLR,,0.00,WeatherDisplay:10.37,2013-01-01 09:59:00,
2013-01-01 04:04:00,21.4,18.6,29.04,West,270,0.0,0.0,89,0.00,CLR,,0.00,WeatherDisplay:10.37,2013-01-01 10:04:00,
2013-01-01 04:09:00,21.4,18.6,29.04,NE,45,0.0,0.0,89,0.00,CLR,,0.00,WeatherDisplay:10.37,2013-01-01 10:09:00,
2013-01-01 04:15:00,21.4,18.6,29.04,NE,45,1.1,0.0,89,0.00,CLR,,0.00,WeatherDisplay:10.37,2013-01-01 10:15:00,
2013-01-01 04:20:00,21.6,18.8,29.04,NE,45,1.1,0.0,89,0.00,CLR,,0.00,WeatherDisplay:10.37,2013-01-01 10:20:00,
2013-01-01 04:25:00,21.6,18.6,29.04,NE,45,0.0,0.0,88,0.00,CLR,,0.00,WeatherDisplay:10.37,2013-01-01 10:25:00,
2013-01-01 04:30:00,21.4,18.1,29.04,NE,45,0.0,0.0,87,0.00,CLR,,0.00,WeatherDisplay:10.37,2013-01-01 10:30:00,
2013-01-01 04:35:00,21.4,18.1,29.04,NNE,20,0.0,1.0,87,0.00,CLR,,0.00,WeatherDisplay:10.37,2013-01-01 10:35:00,
2013-01-01 04:40:00,21.4,18.1,29.04,NE,36,0.0,5.0,87,0.00,CLR,,0.00,WeatherDisplay:10.37,2013-01-01 10:40:00,
2013-01-01 04:45:00,21.4,18.1,29.04,SE,135,1.1,0.0,87,0.00,CLR,,0.00,WeatherDisplay:10.37,2013-01-01 10:45:00,
2013-01-01 04:50:00,21.4,18.1,29.04,West,270,0.0,0.0,87,0.00,CLR,,0.00,WeatherDisplay:10.37,2013-01-01 10:50:00,
2013-01-01 04:55:00,21.2,17.7,29.04,NE,45,1.1,0.0,86,0.00,CLR,,0.00,WeatherDisplay:10.37,2013-01-01 10:55:00,
2013-01-01 05:00:00,21.0,17.5,29.03,North,8,1.1,0.0,86,0.00,CLR,,0.00,WeatherDisplay:10.37,2013-01-01 11:00:00,
2013-01-01 05:05:00,20.7,17.1,29.03,NE,45,3.5,0.0,86,0.00,CLR,,0.00,WeatherDisplay:10.37,2013-01-01 11:05:00,
2013-01-01 05:11:00,20.5,17.0,29.03,NE,45,1.1,0.0,86,0.00,CLR,,0.00,WeatherDisplay:10.37,2013-01-01 11:11:00,
2013-01-01 05:16:00,20.1,16.6,29.04,North,0,0.0,0.0,86,0.00,CLR,,0.00,WeatherDisplay:10.37,2013-01-01 11:16:00,
2013-01-01 05:21:00,19.9,16.4,29.04,SE,135,0.0,0.0,86,0.00,CLR,,0.00,WeatherDisplay:10.37,2013-01-01 11:21:00,
2013-01-01 05:26:00,19.6,16.1,29.05,NW,315,0.0,0.0,86,0.00,CLR,,0.00,WeatherDisplay:10.37,2013-01-01 11:26:00,
2013-01-01 05:31:00,19.4,16.2,29.05,NE,45,1.1,0.0,87,0.00,CLR,,0.00,WeatherDisplay:10.37,2013-01-01 11:31:00,
2013-01-01 05:36:00,19.0,15.8,29.05,NE,45,1.1,0.0,87,0.00,CLR,,0.00,WeatherDisplay:10.37,2013-01-01 11:36:00,
2013-01-01 05:41:00,18.9,15.6,29.05,NE,45,1.1,0.0,87,0.00,CLR,,0.00,WeatherDisplay:10.37,2013-01-01 11:41:00,
2013-01-01 05:46:00,18.7,15.5,29.05,NE,45,1.1,0.0,87,0.00,CLR,,0.00,WeatherDisplay:10.37,2013-01-01 11:46:00,
2013-01-01 05:52:00,18.5,15.3,29.06,South,180,0.0,0.0,87,0.00,CLR,,0.00,WeatherDisplay:10.37,2013-01-01 11:52:00,
2013-01-01 05:57:00,18.1,14.9,29.06,North,0,0.0,0.0,87,0.00,CLR,,0.00,WeatherDisplay:10.37,2013-01-01 11:57:00,
2013-01-01 06:02:00,18.0,14.7,29.06,SE,135,0.0,0.0,87,0.00,CLR,,0.00,WeatherDisplay:10.37,2013-01-01 12:02:00,
2013-01-01 06:07:00,17.8,14.6,29.07,SE,135,0.0,0.0,87,0.00,CLR,,0.00,WeatherDisplay:10.37,2013-01-01 12:07:00,
2013-01-01 06:12:00,17.8,14.8,29.07,NE,45,0.0,0.0,88,0.00,CLR,,0.00,WeatherDisplay:10.37,2013-01-01 12:12:00,
2013-01-01 06:17:00,17.4,14.5,29.07,West,270,0.0,0.0,88,0.00,CLR,,0.00,WeatherDisplay:10.37,2013-01-01 12:17:00,
2013-01-01 06:22:00,17.2,14.3,29.07,SE,135,0.0,0.0,88,0.00,CLR,,0.00,WeatherDisplay:10.37,2013-01-01 12:22:00,
2013-01-01 06:27:00,17.2,14.3,29.07,West,270,0.0,0.0,88,0.00,CLR,,0.00,WeatherDisplay:10.37,2013-01-01 12:27:00,
2013-01-01 06:32:00,17.1,14.1,29.07,West,270,0.0,0.0,88,0.00,CLR,,0.00,WeatherDisplay:10.37,2013-01-01 12:32:00,
2013-01-01 06:37:00,17.1,14.4,29.08,West,270,0.0,0.0,89,0.00,CLR,,0.00,WeatherDisplay:10.37,2013-01-01 12:37:00,
2013-01-01 06:42:00,17.1,14.4,29.08,NE,45,0.0,0.0,89,0.00,CLR,,0.00,WeatherDisplay:10.37,2013-01-01 12:42:00,
2013-01-01 06:48:00,17.1,14.4,29.09,NE,45,0.0,0.0,89,0.00,CLR,,0.00,WeatherDisplay:10.37,2013-01-01 12:48:00,
2013-01-01 06:53:00,17.1,14.4,29.09,NE,45,0.0,0.0,89,0.00,CLR,,0.00,WeatherDisplay:10.37,2013-01-01 12:53:00,
2013-01-01 06:58:00,16.9,14.2,29.09,SE,135,0.0,0.0,89,0.00,CLR,,0.00,WeatherDisplay:10.37,2013-01-01 12:58:00,
2013-01-01 07:03:00,16.9,14.2,29.10,NW,315,1.1,0.0,89,0.00,CLR,,0.00,WeatherDisplay:10.37,2013-01-01 13:03:00,
2013-01-01 07:08:00,16.9,14.2,29.10,WSW,248,1.1,0.0,89,0.00,CLR,,0.00,WeatherDisplay:10.37,2013-01-01 13:08:00,
2013-01-01 07:13:00,16.9,14.2,29.10,WSW,248,0.0,0.0,89,0.00,CLR,,0.00,WeatherDisplay:10.37,2013-01-01 13:13:00,
2013-01-01 07:18:00,16.7,14.0,29.10,SE,135,0.0,0.0,89,0.00,CLR,,0.00,WeatherDisplay:10.37,2013-01-01 13:18:00,
2013-01-01 07:23:00,16.5,13.8,29.10,North,8,0.0,0.0,89,0.00,CLR,,0.00,WeatherDisplay:10.37,2013-01-01 13:23:00,
2013-01-01 07:28:00,16.5,13.8,29.10,North,6,0.0,0.0,89,0.00,CLR,,0.00,WeatherDisplay:10.37,2013-01-01 13:28:00,
2013-01-01 07:33:00,16.5,13.8,29.10,North,0,0.0,0.0,89,0.00,CLR,,0.00,WeatherDisplay:10.37,2013-01-01 13:33:00,
2013-01-01 07:39:00,16.5,13.8,29.11,WSW,248,0.0,0.0,89,0.00,CLR,,0.00,WeatherDisplay:10.37,2013-01-01 13:39:00,
2013-01-01 07:44:00,16.5,13.8,29.11,NE,45,0.0,0.0,89,0.00,CLR,,0.00,WeatherDisplay:10.37,2013-01-01 13:44:00,
2013-01-01 07:49:00,16.5,13.8,29.11,North,0,0.0,0.0,89,0.00,CLR,,0.00,WeatherDisplay:10.37,2013-01-01 13:49:00,
2013-01-01 07:54:00,16.5,13.8,29.11,SE,135,0.0,0.0,89,0.00,CLR,,0.00,WeatherDisplay:10.37,2013-01-01 13:54:00,
2013-01-01 07:59:00,16.7,14.0,29.12,NW,315,1.1,0.0,89,0.00,CLR,,0.00,WeatherDisplay:10.37,2013-01-01 13:59:00,
2013-01-01 08:05:00,16.7,14.0,29.12,NW,315,1.1,0.0,89,0.00,CLR,,0.00,WeatherDisplay:10.37,2013-01-01 14:05:00,
2013-01-01 08:10:00,17.1,14.4,29.12,NW,325,0.0,1.0,89,0.00,CLR,,0.00,WeatherDisplay:10.37,2013-01-01 14:10:00,
2013-01-01 08:15:00,17.1,14.4,29.11,NE,45,0.0,0.0,89,0.00,CLR,,0.00,WeatherDisplay:10.37,2013-01-01 14:15:00,
2013-01-01 08:20:00,17.1,14.1,29.12,West,270,1.1,0.0,88,0.00,CLR,,0.00,WeatherDisplay:10.37,2013-01-01 14:20:00,
2013-01-01 08:25:00,17.1,14.1,29.12,North,0,0.0,0.0,88,0.00,CLR,,0.00,WeatherDisplay:10.37,2013-01-01 14:25:00,
2013-01-01 08:30:00,17.2,14.0,29.12,NE,45,1.1,0.0,87,0.00,CLR,,0.00,WeatherDisplay:10.37,2013-01-01 14:30:00,
2013-01-01 08:35:00,17.2,14.0,29.12,West,270,3.5,0.0,87,0.00,CLR,,0.00,WeatherDisplay:10.37,2013-01-01 14:35:00,
2013-01-01 08:40:00,17.4,14.2,29.13,NW,315,1.1,0.0,87,0.00,CLR,,0.00,WeatherDisplay:10.37,2013-01-01 14:40:00,
2013-01-01 08:45:00,17.4,13.9,29.12,North,0,0.0,0.0,86,0.00,CLR,,0.00,WeatherDisplay:10.37,2013-01-01 14:45:00,
2013-01-01 08:50:00,17.4,13.9,29.13,NW,315,1.1,0.0,86,0.00,CLR,,0.00,WeatherDisplay:10.37,2013-01-01 14:50:00,
2013-01-01 08:55:00,17.6,14.1,29.13,South,180,1.1,0.0,86,0.00,CLR,,0.00,WeatherDisplay:10.37,2013-01-01 14:55:00,
2013-01-01 09:00:00,17.6,13.9,29.12,NE,45,0.0,0.0,85,0.00,CLR,,0.00,WeatherDisplay:10.37,2013-01-01 15:00:00,
2013-01-01 09:06:00,17.6,13.9,29.13,NE,45,0.0,0.0,85,0.00,CLR,,0.00,WeatherDisplay:10.37,2013-01-01 15:06:00,
2013-01-01 09:11:00,17.8,14.0,29.13,NE,45,0.0,0.0,85,0.00,CLR,,0.00,WeatherDisplay:10.37,2013-01-01 15:11:00,
2013-01-01 09:16:00,18.0,14.2,29.13,WSW,248,1.1,0.0,85,0.00,CLR,,0.00,WeatherDisplay:10.37,2013-01-01 15:16:00,
2013-01-01 09:21:00,18.3,14.3,29.13,SE,135,1.1,0.0,84,0.00,CLR,,0.00,WeatherDisplay:10.37,2013-01-01 15:21:00,
2013-01-01 09:26:00,18.3,14.3,29.14,North,0,1.1,0.0,84,0.00,CLR,,0.00,WeatherDisplay:10.37,2013-01-01 15:26:00,
2013-01-01 09:31:00,18.9,14.8,29.13,NE,45,0.0,0.0,84,0.00,CLR,,0.00,WeatherDisplay:10.37,2013-01-01 15:31:00,
2013-01-01 09:37:00,19.2,15.2,29.14,NW,315,0.0,0.0,84,0.00,CLR,,0.00,WeatherDisplay:10.37,2013-01-01 15:37:00,
2013-01-01 09:42:00,19.9,15.6,29.15,WSW,248,1.1,0.0,83,0.00,CLR,,0.00,WeatherDisplay:10.37,2013-01-01 15:42:00,
2013-01-01 09:47:00,20.5,15.9,29.15,North,0,1.1,0.0,82,0.00,CLR,,0.00,WeatherDisplay:10.37,2013-01-01 15:47:00,
2013-01-01 09:52:00,21.2,16.6,29.15,North,0,1.1,0.0,82,0.00,CLR,,0.00,WeatherDisplay:10.37,2013-01-01 15:52:00,
2013-01-01 09:57:00,22.5,17.5,29.15,South,180,0.0,0.0,81,0.00,CLR,,0.00,WeatherDisplay:10.37,2013-01-01 15:57:00,
2013-01-01 10:02:00,22.8,17.6,29.15,SE,135,1.1,0.0,80,0.00,CLR,,0.00,WeatherDisplay:10.37,2013-01-01 16:02:00,
2013-01-01 10:08:00,22.6,16.8,29.16,SE,135,1.1,0.0,78,0.00,CLR,,0.00,WeatherDisplay:10.37,2013-01-01 16:08:00,
2013-01-01 10:13:00,22.5,16.6,29.16,West,270,1.1,0.0,78,0.00,CLR,,0.00,WeatherDisplay:10.37,2013-01-01 16:13:00,
2013-01-01 10:18:00,21.9,15.8,29.16,North,0,0.0,0.0,77,0.00,CLR,,0.00,WeatherDisplay:10.37,2013-01-01 16:18:00,
2013-01-01 10:23:00,22.3,16.2,29.16,NW,315,1.1,0.0,77,0.00,CLR,,0.00,WeatherDisplay:10.37,2013-01-01 16:23:00,
2013-01-01 10:28:00,21.9,15.5,29.15,SE,135,1.1,0.0,76,0.00,CLR,,0.00,WeatherDisplay:10.37,2013-01-01 16:28:00,
2013-01-01 10:33:00,22.6,16.8,29.16,SE,135,0.0,0.0,78,0.00,CLR,,0.00,WeatherDisplay:10.37,2013-01-01 16:33:00,
2013-01-01 10:38:00,22.8,16.7,29.16,NW,315,0.0,0.0,77,0.00,CLR,,0.00,WeatherDisplay:10.37,2013-01-01 16:38:00,
2013-01-01 10:43:00,22.8,16.4,29.15,North,0,0.0,0.0,76,0.00,CLR,,0.00,WeatherDisplay:10.37,2013-01-01 16:43:00,
2013-01-01 10:48:00,23.2,16.7,29.15,West,270,1.1,0.0,76,0.00,CLR,,0.00,WeatherDisplay:10.37,2013-01-01 16:48:00,
2013-01-01 10:54:00,23.0,16.3,29.15,SE,135,0.0,0.0,75,0.00,CLR,,0.00,WeatherDisplay:10.37,2013-01-01 16:54:00,
2013-01-01 10:59:00,22.6,16.2,29.15,NW,315,0.0,0.0,76,0.00,CLR,,0.00,WeatherDisplay:10.37,2013-01-01 16:59:00,
2013-01-01 11:04:00,22.6,15.9,29.14,SW,225,0.0,0.0,75,0.00,CLR,,0.00,WeatherDisplay:10.37,2013-01-01 17:04:00,
2013-01-01 11:09:00,22.6,15.9,29.14,NW,315,1.1,0.0,75,0.00,CLR,,0.00,WeatherDisplay:10.37,2013-01-01 17:09:00,
2013-01-01 11:14:00,22.6,15.9,29.15,WSW,248,1.1,0.0,75,0.00,CLR,,0.00,WeatherDisplay:10.37,2013-01-01 17:14:00,
2013-01-01 11:19:00,23.4,16.6,29.14,NW,315,0.0,0.0,75,0.00,CLR,,0.00,WeatherDisplay:10.37,2013-01-01 17:19:00,
2013-01-01 11:24:00,23.7,16.6,29.14,West,270,1.1,0.0,74,0.00,CLR,,0.00,WeatherDisplay:10.37,2013-01-01 17:24:00,
2013-01-01 11:29:00,23.7,16.0,29.14,West,270,1.1,0.0,72,0.00,CLR,,0.00,WeatherDisplay:10.37,2013-01-01 17:29:00,
2013-01-01 11:34:00,23.7,16.0,29.14,NW,315,1.1,0.0,72,0.00,CLR,,0.00,WeatherDisplay:10.37,2013-01-01 17:34:00,
2013-01-01 11:39:00,23.0,15.6,29.13,West,270,0.0,0.0,73,0.00,CLR,,0.00,WeatherDisplay:10.37,2013-01-01 17:39:00,
2013-01-01 11:44:00,23.4,16.0,29.14,WSW,248,0.0,0.0,73,0.00,CLR,,0.00,WeatherDisplay:10.37,2013-01-01 17:44:00,
2013-01-01 11:50:00,24.4,17.0,29.13,WSW,248,0.0,0.0,73,0.00,CLR,,0.00,WeatherDisplay:10.37,2013-01-01 17:50:00,
2013-01-01 11:55:00,25.6,17.8,29.13,WNW,283,0.0,1.0,72,0.00,CLR,,0.00,WeatherDisplay:10.37,2013-01-01 17:55:00,
2013-01-01 12:00:00,26.7,18.2,29.13,SSE,148,0.0,1.0,70,0.00,CLR,,0.00,WeatherDisplay:10.37,2013-01-01 18:00:00,
2013-01-01 12:05:00,27.0,18.2,29.13,SW,219,0.0,1.0,69,0.00,CLR,,0.00,WeatherDisplay:10.37,2013-01-01 18:05:00,
2013-01-01 12:10:00,27.1,17.3,29.13,West,275,0.0,1.0,66,0.00,CLR,,0.00,WeatherDisplay:10.37,2013-01-01 18:10:00,
2013-01-01 12:15:00,27.1,17.6,29.13,South,180,1.1,0.0,67,0.00,CLR,,0.00,WeatherDisplay:10.37,2013-01-01 18:15:00,
2013-01-01 12:20:00,26.4,17.0,29.13,WSW,252,0.0,2.0,67,0.00,CLR,,0.00,WeatherDisplay:10.37,2013-01-01 18:20:00,
2013-01-01 12:25:00,26.6,17.5,29.12,South,180,0.0,0.0,68,0.00,CLR,,0.00,WeatherDisplay:10.37,2013-01-01 18:25:00,
2013-01-01 12:30:00,26.1,16.6,29.12,North,0,1.1,0.0,67,0.00,CLR,,0.00,WeatherDisplay:10.37,2013-01-01 18:30:00,
2013-01-01 12:35:00,26.1,16.6,29.13,NW,315,0.0,0.0,67,0.00,CLR,,0.00,WeatherDisplay:10.37,2013-01-01 18:35:00,
2013-01-01 12:40:00,26.1,17.3,29.13,South,180,1.1,0.0,69,0.00,CLR,,0.00,WeatherDisplay:10.37,2013-01-01 18:40:00,
2013-01-01 12:45:00,26.2,17.1,29.13,West,270,1.1,0.0,68,0.00,CLR,,0.00,WeatherDisplay:10.37,2013-01-01 18:45:00,
2013-01-01 12:50:00,26.2,17.1,29.12,SW,225,1.1,0.0,68,0.00,CLR,,0.00,WeatherDisplay:10.37,2013-01-01 18:50:00,
2013-01-01 12:55:00,26.4,17.3,29.12,West,270,1.1,0.0,68,0.00,CLR,,0.00,WeatherDisplay:10.37,2013-01-01 18:55:00,
2013-01-01 13:01:00,26.2,17.1,29.12,SE,135,1.1,0.0,68,0.00,CLR,,0.00,WeatherDisplay:10.37,2013-01-01 19:01:00,
2013-01-01 13:06:00,26.4,17.3,29.12,NW,315,1.1,0.0,68,0.00,CLR,,0.00,WeatherDisplay:10.37,2013-01-01 19:06:00,
2013-01-01 13:11:00,26.8,18.0,29.12,NW,315,1.1,0.0,69,0.00,CLR,,0.00,WeatherDisplay:10.37,2013-01-01 19:11:00,
2013-01-01 13:16:00,26.6,17.5,29.12,South,180,0.0,0.0,68,0.00,CLR,,0.00,WeatherDisplay:10.37,2013-01-01 19:16:00,
2013-01-01 13:22:00,27.3,18.1,29.12,West,270,1.1,0.0,68,0.00,CLR,,0.00,WeatherDisplay:10.37,2013-01-01 19:22:00,
2013-01-01 13:27:00,27.9,18.7,29.12,North,0,0.0,0.0,68,0.00,CLR,,0.00,WeatherDisplay:10.37,2013-01-01 19:27:00,
2013-01-01 13:32:00,28.4,19.2,29.12,SE,135,0.0,0.0,68,0.00,CLR,,0.00,WeatherDisplay:10.37,2013-01-01 19:32:00,
2013-01-01 13:37:00,28.4,19.2,29.12,SE,135,0.0,0.0,68,0.00,CLR,,0.00,WeatherDisplay:10.37,2013-01-01 19:37:00,
2013-01-01 13:42:00,28.8,18.1,29.12,NW,315,1.1,0.0,64,0.00,CLR,,0.00,WeatherDisplay:10.37,2013-01-01 19:42:00,
2013-01-01 13:47:00,27.9,17.3,29.12,NW,315,1.1,0.0,64,0.00,CLR,,0.00,WeatherDisplay:10.37,2013-01-01 19:47:00,
2013-01-01 13:52:00,27.5,17.3,29.12,NW,315,1.1,0.0,65,0.00,CLR,,0.00,WeatherDisplay:10.37,2013-01-01 19:52:00,
2013-01-01 13:57:00,27.3,16.7,29.12,North,0,1.1,0.0,64,0.00,CLR,,0.00,WeatherDisplay:10.37,2013-01-01 19:57:00,
2013-01-01 14:02:00,27.3,17.1,29.12,WSW,248,0.0,0.0,65,0.00,CLR,,0.00,WeatherDisplay:10.37,2013-01-01 20:02:00,
2013-01-01 14:07:00,27.3,17.1,29.12,WSW,248,0.0,0.0,65,0.00,CLR,,0.00,WeatherDisplay:10.37,2013-01-01 20:07:00,
2013-01-01 14:13:00,27.9,17.3,29.12,South,180,1.1,0.0,64,0.00,CLR,,0.00,WeatherDisplay:10.37,2013-01-01 20:13:00,
2013-01-01 14:18:00,27.9,16.9,29.11,NW,315,1.1,0.0,63,0.00,CLR,,0.00,WeatherDisplay:10.37,2013-01-01 20:18:00,
2013-01-01 14:23:00,27.7,16.7,29.11,West,270,1.1,0.0,63,0.00,CLR,,0.00,WeatherDisplay:10.37,2013-01-01 20:23:00,
2013-01-01 14:28:00,27.7,16.7,29.11,WSW,248,1.1,0.0,63,0.00,CLR,,0.00,WeatherDisplay:10.37,2013-01-01 20:28:00,
2013-01-01 14:33:00,28.0,16.3,29.11,North,0,1.1,0.0,61,0.00,CLR,,0.00,WeatherDisplay:10.37,2013-01-01 20:33:00,
2013-01-01 14:38:00,28.8,16.6,29.11,West,270,1.1,0.0,60,0.00,CLR,,0.00,WeatherDisplay:10.37,2013-01-01 20:38:00,
2013-01-01 14:43:00,29.5,16.9,29.11,South,180,1.1,0.0,59,0.00,CLR,,0.00,WeatherDisplay:10.37,2013-01-01 20:43:00,
2013-01-01 14:48:00,29.8,17.2,29.11,South,180,1.1,0.0,59,0.00,CLR,,0.00,WeatherDisplay:10.37,2013-01-01 20:48:00,
2013-01-01 14:54:00,30.2,17.6,29.11,West,270,1.1,0.0,59,0.00,CLR,,0.00,WeatherDisplay:10.37,2013-01-01 20:54:00,
2013-01-01 14:59:00,29.8,16.8,29.11,NW,315,0.0,0.0,58,0.00,CLR,,0.00,WeatherDisplay:10.37,2013-01-01 20:59:00,
2013-01-01 15:04:00,29.3,16.3,29.11,NW,315,1.1,0.0,58,0.00,CLR,,0.00,WeatherDisplay:10.37,2013-01-01 21:04:00,
2013-01-01 15:09:00,29.8,17.2,29.10,North,0,1.1,0.0,59,0.00,CLR,,0.00,WeatherDisplay:10.37,2013-01-01 21:09:00,
2013-01-01 15:14:00,29.5,16.1,29.11,SW,225,1.1,0.0,57,0.00,CLR,,0.00,WeatherDisplay:10.37,2013-01-01 21:14:00,
2013-01-01 15:19:00,28.8,15.4,29.10,West,270,1.1,0.0,57,0.00,CLR,,0.00,WeatherDisplay:10.37,2013-01-01 21:19:00,
2013-01-01 15:24:00,29.1,15.8,29.11,West,270,1.1,0.0,57,0.00,CLR,,0.00,WeatherDisplay:10.37,2013-01-01 21:24:00,
2013-01-01 15:29:00,29.5,16.5,29.10,NW,315,0.0,0.0,58,0.00,CLR,,0.00,WeatherDisplay:10.37,2013-01-01 21:29:00,
2013-01-01 15:34:00,29.8,16.8,29.10,North,0,0.0,0.0,58,0.00,CLR,,0.00,WeatherDisplay:10.37,2013-01-01 21:34:00,
2013-01-01 15:40:00,30.0,16.2,29.10,WSW,248,0.0,0.0,56,0.00,CLR,,0.00,WeatherDisplay:10.37,2013-01-01 21:40:00,
2013-01-01 15:45:00,29.8,16.0,29.10,WNW,300,0.0,1.0,56,0.00,CLR,,0.00,WeatherDisplay:10.37,2013-01-01 21:45:00,
2013-01-01 15:50:00,29.8,15.6,29.10,NW,311,0.0,1.0,55,0.00,CLR,,0.00,WeatherDisplay:10.37,2013-01-01 21:50:00,
2013-01-01 15:55:00,29.3,15.9,29.10,WNW,287,0.0,1.0,57,0.00,CLR,,0.00,WeatherDisplay:10.37,2013-01-01 21:55:00,
2013-01-01 16:00:00,29.5,15.7,29.10,South,180,1.1,0.0,56,0.00,CLR,,0.00,WeatherDisplay:10.37,2013-01-01 22:00:00,
2013-01-01 16:05:00,29.5,15.7,29.10,West,270,0.0,0.0,56,0.00,CLR,,0.00,WeatherDisplay:10.37,2013-01-01 22:05:00,
2013-01-01 16:10:00,29.7,16.3,29.10,South,180,0.0,0.0,57,0.00,CLR,,0.00,WeatherDisplay:10.37,2013-01-01 22:10:00,
2013-01-01 16:15:00,29.8,15.6,29.10,NW,315,0.0,0.0,55,0.00,CLR,,0.00,WeatherDisplay:10.37,2013-01-01 22:15:00,
2013-01-01 16:20:00,29.8,15.6,29.10,NW,315,1.1,0.0,55,0.00,CLR,,0.00,WeatherDisplay:10.37,2013-01-01 22:20:00,
2013-01-01 16:26:00,29.7,16.3,29.09,SE,135,0.0,0.0,57,0.00,CLR,,0.00,WeatherDisplay:10.37,2013-01-01 22:26:00,
2013-01-01 16:31:00,28.9,15.6,29.09,West,270,0.0,0.0,57,0.00,CLR,,0.00,WeatherDisplay:10.37,2013-01-01 22:31:00,
2013-01-01 16:36:00,28.2,15.7,29.09,WSW,248,0.0,0.0,59,0.00,CLR,,0.00,WeatherDisplay:10.37,2013-01-01 22:36:00,
2013-01-01 16:41:00,27.1,15.1,29.09,West,270,0.0,0.0,60,0.00,CLR,,0.00,WeatherDisplay:10.37,2013-01-01 22:41:00,
2013-01-01 16:46:00,26.2,14.2,29.09,SE,135,0.0,0.0,60,0.00,CLR,,0.00,WeatherDisplay:10.37,2013-01-01 22:46:00,
2013-01-01 16:51:00,25.3,13.8,29.10,West,270,0.0,0.0,61,0.00,CLR,,0.00,WeatherDisplay:10.37,2013-01-01 22:51:00,
2013-01-01 16:57:00,24.8,13.6,29.10,South,180,0.0,0.0,62,0.00,CLR,,0.00,WeatherDisplay:10.37,2013-01-01 22:57:00,
2013-01-01 17:02:00,24.4,13.3,29.11,South,180,0.0,0.0,62,0.00,CLR,,0.00,WeatherDisplay:10.37,2013-01-01 23:02:00,
2013-01-01 17:07:00,24.4,13.3,29.10,South,180,0.0,0.0,62,0.00,CLR,,0.00,WeatherDisplay:10.37,2013-01-01 23:07:00,
2013-01-01 17:12:00,23.4,13.0,29.10,NW,315,1.1,0.0,64,0.00,CLR,,0.00,WeatherDisplay:10.37,2013-01-01 23:12:00,
2013-01-01 17:17:00,23.2,12.8,29.10,NW,315,0.0,0.0,64,0.00,CLR,,0.00,WeatherDisplay:10.37,2013-01-01 23:17:00,
2013-01-01 17:22:00,22.6,12.3,29.10,NW,315,0.0,0.0,64,0.00,CLR,,0.00,WeatherDisplay:10.37,2013-01-01 23:22:00,
2013-01-01 17:27:00,22.3,11.9,29.10,NW,315,0.0,0.0,64,0.00,CLR,,0.00,WeatherDisplay:10.37,2013-01-01 23:27:00,
2013-01-01 17:32:00,21.7,11.8,29.10,NW,315,0.0,0.0,65,0.00,CLR,,0.00,WeatherDisplay:10.37,2013-01-01 23:32:00,
2013-01-01 17:37:00,21.4,11.8,29.10,NW,315,0.0,0.0,66,0.00,CLR,,0.00,WeatherDisplay:10.37,2013-01-01 23:37:00,
2013-01-01 17:42:00,21.2,11.9,29.09,NW,315,0.0,0.0,67,0.00,CLR,,0.00,WeatherDisplay:10.37,2013-01-01 23:42:00,
2013-01-01 17:48:00,20.8,11.6,29.10,NW,315,0.0,0.0,67,0.00,CLR,,0.00,WeatherDisplay:10.37,2013-01-01 23:48:00,
2013-01-01 17:53:00,20.5,11.6,29.09,NW,315,0.0,0.0,68,0.00,CLR,,0.00,WeatherDisplay:10.37,2013-01-01 23:53:00,
2013-01-01 17:58:00,20.3,11.7,29.09,NW,315,0.0,0.0,69,0.00,CLR,,0.00,WeatherDisplay:10.37,2013-01-01 23:58:00,
2013-01-01 18:03:00,20.1,11.6,29.09,NW,315,0.0,0.0,69,0.00,CLR,,0.00,WeatherDisplay:10.37,2013-01-02 00:03:00,
2013-01-01 18:08:00,19.8,11.6,29.08,NW,315,0.0,0.0,70,0.00,CLR,,0.00,WeatherDisplay:10.37,2013-01-02 00:08:00,
2013-01-01 18:14:00,19.4,11.5,29.08,NW,315,0.0,0.0,71,0.00,CLR,,0.00,WeatherDisplay:10.37,2013-01-02 00:14:00,
2013-01-01 18:19:00,19.4,11.5,29.09,NW,315,0.0,0.0,71,0.00,CLR,,0.00,WeatherDisplay:10.37,2013-01-02 00:19:00,
2013-01-01 18:24:00,19.2,12.0,29.09,South,180,0.0,0.0,73,0.00,CLR,,0.00,WeatherDisplay:10.37,2013-01-02 00:24:00,
2013-01-01 18:29:00,19.0,12.1,29.08,South,180,0.0,0.0,74,0.00,CLR,,0.00,WeatherDisplay:10.37,2013-01-02 00:29:00,
2013-01-01 18:34:00,18.7,11.5,29.08,South,180,0.0,0.0,73,0.00,CLR,,0.00,WeatherDisplay:10.37,2013-01-02 00:34:00,
2013-01-01 18:39:00,18.3,11.4,29.08,South,180,0.0,0.0,74,0.00,CLR,,0.00,WeatherDisplay:10.37,2013-01-02 00:39:00,
2013-01-01 18:44:00,18.0,11.1,29.08,South,180,0.0,0.0,74,0.00,CLR,,0.00,WeatherDisplay:10.37,2013-01-02 00:44:00,
2013-01-01 18:49:00,17.8,10.9,29.08,South,180,0.0,0.0,74,0.00,CLR,,0.00,WeatherDisplay:10.37,2013-01-02 00:49:00,
2013-01-01 18:54:00,17.6,11.0,29.10,South,180,0.0,0.0,75,0.00,CLR,,0.00,WeatherDisplay:10.37,2013-01-02 00:54:00,
2013-01-01 18:59:00,17.6,11.3,29.10,South,180,0.0,0.0,76,0.00,CLR,,0.00,WeatherDisplay:10.37,2013-01-02 00:59:00,
2013-01-01 19:04:00,17.6,11.3,29.10,South,180,0.0,0.0,76,0.00,CLR,,0.00,WeatherDisplay:10.37,2013-01-02 01:04:00,
2013-01-01 19:09:00,17.2,11.0,29.09,South,180,0.0,0.0,76,0.00,CLR,,0.00,WeatherDisplay:10.37,2013-01-02 01:09:00,
2013-01-01 19:14:00,17.1,10.8,29.09,South,180,0.0,0.0,76,0.00,CLR,,0.00,WeatherDisplay:10.37,2013-01-02 01:14:00,
2013-01-01 19:20:00,16.9,10.9,29.09,South,180,0.0,0.0,77,0.00,CLR,,0.00,WeatherDisplay:10.37,2013-01-02 01:20:00,
2013-01-01 19:25:00,16.7,10.7,29.10,South,180,0.0,0.0,77,0.00,CLR,,0.00,WeatherDisplay:10.37,2013-01-02 01:25:00,
2013-01-01 19:30:00,16.7,11.0,29.10,South,180,0.0,0.0,78,0.00,CLR,,0.00,WeatherDisplay:10.37,2013-01-02 01:30:00,
2013-01-01 19:35:00,16.5,10.9,29.09,South,180,0.0,0.0,78,0.00,CLR,,0.00,WeatherDisplay:10.37,2013-01-02 01:35:00,
2013-01-01 19:40:00,16.3,10.7,29.09,South,180,0.0,0.0,78,0.00,CLR,,0.00,WeatherDisplay:10.37,2013-01-02 01:40:00,
2013-01-01 19:45:00,16.2,10.5,29.09,South,180,0.0,0.0,78,0.00,CLR,,0.00,WeatherDisplay:10.37,2013-01-02 01:45:00,
2013-01-01 19:50:00,16.2,10.8,29.09,South,180,0.0,0.0,79,0.00,CLR,,0.00,WeatherDisplay:10.37,2013-01-02 01:50:00,
2013-01-01 19:55:00,16.0,10.6,29.09,South,180,0.0,0.0,79,0.00,CLR,,0.00,WeatherDisplay:10.37,2013-01-02 01:55:00,
2013-01-01 20:00:00,16.0,10.6,29.10,South,180,0.0,0.0,79,0.00,CLR,,0.00,WeatherDisplay:10.37,2013-01-02 02:00:00,
2013-01-01 20:05:00,16.0,10.6,29.10,South,180,0.0,0.0,79,0.00,CLR,,0.00,WeatherDisplay:10.37,2013-01-02 02:05:00,
2013-01-01 20:10:00,15.8,11.0,29.10,South,180,0.0,0.0,81,0.00,CLR,,0.00,WeatherDisplay:10.37,2013-01-02 02:10:00,
2013-01-01 20:15:00,15.8,11.0,29.10,South,180,0.0,0.0,81,0.00,CLR,,0.00,WeatherDisplay:10.37,2013-01-02 02:15:00,
2013-01-01 20:20:00,15.6,10.8,29.09,South,180,0.0,0.0,81,0.00,CLR,,0.00,WeatherDisplay:10.37,2013-01-02 02:20:00,
2013-01-01 20:25:00,15.4,10.9,29.09,South,180,0.0,0.0,82,0.00,CLR,,0.00,WeatherDisplay:10.37,2013-01-02 02:25:00,
2013-01-01 20:30:00,15.4,11.2,29.09,WSW,248,0.0,0.0,83,0.00,CLR,,0.00,WeatherDisplay:10.37,2013-01-02 02:30:00,
2013-01-01 20:35:00,15.8,11.6,29.09,WSW,248,1.1,0.0,83,0.00,CLR,,0.00,WeatherDisplay:10.37,2013-01-02 02:35:00,
2013-01-01 20:41:00,15.8,11.6,29.08,WSW,248,0.0,0.0,83,0.00,CLR,,0.00,WeatherDisplay:10.37,2013-01-02 02:41:00,
2013-01-01 20:46:00,15.8,11.3,29.08,WSW,248,0.0,0.0,82,0.00,CLR,,0.00,WeatherDisplay:10.37,2013-01-02 02:46:00,
2013-01-01 20:51:00,15.8,11.3,29.08,WSW,248,0.0,0.0,82,0.00,CLR,,0.00,WeatherDisplay:10.37,2013-01-02 02:51:00,
2013-01-01 20:56:00,15.8,11.3,29.09,WSW,248,1.1,0.0,82,0.00,CLR,,0.00,WeatherDisplay:10.37,2013-01-02 02:56:00,
2013-01-01 21:01:00,15.6,11.1,29.09,WSW,248,0.0,0.0,82,0.00,CLR,,0.00,WeatherDisplay:10.37,2013-01-02 03:01:00,
2013-01-01 21:06:00,15.6,11.1,29.09,WSW,248,0.0,0.0,82,0.00,CLR,,0.00,WeatherDisplay:10.37,2013-01-02 03:06:00,
2013-01-01 21:12:00,16.2,11.6,29.09,WSW,248,1.1,0.0,82,0.00,CLR,,0.00,WeatherDisplay:10.37,2013-01-02 03:12:00,
2013-01-01 21:17:00,16.2,11.4,29.09,WSW,248,0.0,0.0,81,0.00,CLR,,0.00,WeatherDisplay:10.37,2013-01-02 03:17:00,
2013-01-01 21:22:00,16.3,11.5,29.09,WSW,248,0.0,0.0,81,0.00,CLR,,0.00,WeatherDisplay:10.37,2013-01-02 03:22:00,
2013-01-01 21:27:00,16.2,11.4,29.09,WSW,248,0.0,0.0,81,0.00,CLR,,0.00,WeatherDisplay:10.37,2013-01-02 03:27:00,
2013-01-01 21:32:00,16.2,11.4,29.09,WSW,248,0.0,0.0,81,0.00,CLR,,0.00,WeatherDisplay:10.37,2013-01-02 03:32:00,
2013-01-01 21:37:00,16.2,11.4,29.09,South,180,1.1,0.0,81,0.00,CLR,,0.00,WeatherDisplay:10.37,2013-01-02 03:37:00,
2013-01-01 21:42:00,16.3,11.5,29.08,South,180,1.1,0.0,81,0.00,CLR,,0.00,WeatherDisplay:10.37,2013-01-02 03:42:00,
2013-01-01 21:47:00,16.5,11.7,29.08,WSW,248,0.0,0.0,81,0.00,CLR,,0.00,WeatherDisplay:10.37,2013-01-02 03:47:00,
2013-01-01 21:52:00,16.5,11.7,29.08,South,180,0.0,0.0,81,0.00,CLR,,0.00,WeatherDisplay:10.37,2013-01-02 03:52:00,
2013-01-01 21:58:00,16.3,11.5,29.08,South,180,0.0,0.0,81,0.00,CLR,,0.00,WeatherDisplay:10.37,2013-01-02 03:58:00,
2013-01-01 22:03:00,16.3,11.5,29.07,South,180,0.0,0.0,81,0.00,CLR,,0.00,WeatherDisplay:10.37,2013-01-02 04:03:00,
2013-01-01 22:08:00,15.8,11.0,29.08,South,180,0.0,0.0,81,0.00,CLR,,0.00,WeatherDisplay:10.37,2013-01-02 04:08:00,
2013-01-01 22:13:00,15.6,10.8,29.08,South,180,0.0,0.0,81,0.00,CLR,,0.00,WeatherDisplay:10.37,2013-01-02 04:13:00,
2013-01-01 22:18:00,15.4,10.7,29.08,South,180,0.0,0.0,81,0.00,CLR,,0.00,WeatherDisplay:10.37,2013-01-02 04:18:00,
2013-01-01 22:23:00,15.3,10.8,29.07,South,180,0.0,0.0,82,0.00,CLR,,0.00,WeatherDisplay:10.37,2013-01-02 04:23:00,
2013-01-01 22:29:00,15.1,10.6,29.07,South,180,0.0,0.0,82,0.00,CLR,,0.00,WeatherDisplay:10.37,2013-01-02 04:29:00,
2013-01-01 22:34:00,14.9,10.4,29.07,South,180,0.0,0.0,82,0.00,CLR,,0.00,WeatherDisplay:10.37,2013-01-02 04:34:00,
2013-01-01 22:39:00,14.9,10.7,29.08,South,180,0.0,0.0,83,0.00,CLR,,0.00,WeatherDisplay:10.37,2013-01-02 04:39:00,
2013-01-01 22:44:00,14.9,10.9,29.08,WSW,248,0.0,0.0,84,0.00,CLR,,0.00,WeatherDisplay:10.37,2013-01-02 04:44:00,
2013-01-01 22:49:00,14.9,10.9,29.09,WSW,248,0.0,0.0,84,0.00,CLR,,0.00,WeatherDisplay:10.37,2013-01-02 04:49:00,
2013-01-01 22:54:00,14.9,10.9,29.09,WSW,248,0.0,0.0,84,0.00,CLR,,0.00,WeatherDisplay:10.37,2013-01-02 04:54:00,
2013-01-01 22:59:00,14.9,11.2,29.08,WSW,248,0.0,0.0,85,0.00,CLR,,0.00,WeatherDisplay:10.37,2013-01-02 04:59:00,
2013-01-01 23:00:00,14.9,11.2,29.08,WSW,248,0.0,0.0,85,0.00,CLR,,0.00,WeatherDisplay:10.37,2013-01-02 05:00:00,
2013-01-01 23:03:00,14.7,11.0,29.08,WSW,248,0.0,0.0,85,0.00,CLR,,0.00,WeatherDisplay:10.37,2013-01-02 05:03:00,
2013-01-01 23:04:00,14.7,11.0,29.08,WSW,248,0.0,0.0,85,0.00,CLR,,0.00,WeatherDisplay:10.37,2013-01-02 05:04:00,
2013-01-01 23:09:00,14.5,10.6,29.09,WSW,248,0.0,0.0,84,0.00,CLR,,0.00,WeatherDisplay:10.37,2013-01-02 05:09:00,
2013-01-01 23:14:00,14.4,10.4,29.09,WSW,248,0.0,0.0,84,0.00,CLR,,0.00,WeatherDisplay:10.37,2013-01-02 05:14:00,
2013-01-01 23:19:00,14.2,10.5,29.08,WSW,248,0.0,0.0,85,0.00,CLR,,0.00,WeatherDisplay:10.37,2013-01-02 05:19:00,
2013-01-01 23:24:00,14.2,10.5,29.08,WSW,248,0.0,0.0,85,0.00,CLR,,0.00,WeatherDisplay:10.37,2013-01-02 05:24:00,
2013-01-01 23:30:00,14.0,10.1,29.08,WSW,248,0.0,0.0,84,0.00,CLR,,0.00,WeatherDisplay:10.37,2013-01-02 05:30:00,
2013-01-01 23:35:00,14.2,10.5,29.07,WSW,248,0.0,0.0,85,0.00,CLR,,0.00,WeatherDisplay:10.37,2013-01-02 05:35:00,
2013-01-01 23:40:00,14.4,10.9,29.07,WSW,248,0.0,0.0,86,0.00,CLR,,0.00,WeatherDisplay:10.37,2013-01-02 05:40:00,
2013-01-01 23:45:00,14.4,11.0,29.07,WSW,248,0.0,0.0,86,0.00,CLR,,0.00,WeatherDisplay:10.37,2013-01-02 05:45:00,
2013-01-01 23:50:00,14.4,10.9,29.07,WSW,248,0.0,0.0,86,0.00,CLR,,0.00,WeatherDisplay:10.37,2013-01-02 05:50:00,
2013-01-01 23:55:00,14.4,10.7,29.07,WSW,248,0.0,0.0,85,0.00,CLR,,0.00,WeatherDisplay:10.37,2013-01-02 05:55:00,